TimeAKDT,TemperatureF,Dew PointF,Humidity,Sea Level PressureIn,VisibilityMPH,Wind Direction,Wind SpeedMPH,Gust SpeedMPH,PrecipitationIn,Events,Conditions,WindDirDegrees,DateUTC
12:50 AM,15.8,12.2,86,30.41,2.5,East,9.2,-,0.00,Snow,Light Snow,90,2013-04-13 08:50:00
12:53 AM,16.0,12.9,88,30.42,2.5,East,8.1,-,0.00,Snow,Light Snow,90,2013-04-13 08:53:00
1:03 AM,15.8,12.2,86,30.42,4.0,East,8.1,-,0.00,Snow,Light Snow,90,2013-04-13 09:03:00
1:21 AM,15.8,12.2,86,30.42,3.0,ENE,6.9,-,0.01,Snow,Light Snow,70,2013-04-13 09:21:00
1:27 AM,15.8,12.2,86,30.41,3.0,East,8.1,-,0.01,Snow,Light Snow,80,2013-04-13 09:27:00
1:53 AM,16.0,14.0,92,30.42,4.0,Variable,3.5,-,0.01,Snow,Light Snow,0,2013-04-13 09:53:00
2:53 AM,16.0,12.0,84,30.42,5.0,Calm,Calm,-,0.00,Snow,Light Snow,0,2013-04-13 10:53:00
3:53 AM,17.1,12.9,84,30.41,10.0,East,5.8,-,0.00,,Overcast,80,2013-04-13 11:53:00
4:53 AM,17.1,14.0,88,30.41,10.0,East,3.5,-,N/A,,Overcast,100,2013-04-13 12:53:00
5:53 AM,17.1,12.9,84,30.41,10.0,East,6.9,-,N/A,,Overcast,80,2013-04-13 13:53:00
6:34 AM,17.6,14.0,86,30.41,9.0,East,8.1,-,N/A,,Overcast,100,2013-04-13 14:34:00
6:53 AM,17.1,14.0,88,30.40,3.0,East,9.2,-,0.00,Snow,Light Snow,100,2013-04-13 14:53:00
7:20 AM,17.6,14.0,86,30.39,2.0,East,8.1,-,0.01,Snow,Light Snow,100,2013-04-13 15:20:00
7:53 AM,17.1,15.1,92,30.38,2.0,East,9.2,-,0.01,Snow,Light Snow,100,2013-04-13 15:53:00
8:03 AM,17.6,15.8,93,30.38,1.2,East,9.2,-,0.01,Snow,Light Snow,90,2013-04-13 16:03:00
8:08 AM,17.6,15.8,93,30.38,2.0,East,8.1,-,0.01,Snow,Light Snow,90,2013-04-13 16:08:00
8:43 AM,19.4,17.6,93,30.37,1.0,ESE,5.8,-,0.03,Snow,Light Snow,110,2013-04-13 16:43:00
8:53 AM,19.9,18.0,92,30.38,1.0,ESE,4.6,-,0.03,Snow,Light Snow,120,2013-04-13 16:53:00
9:53 AM,23.0,21.0,92,30.38,1.0,SW,10.4,-,0.04,Snow,Light Snow,220,2013-04-13 17:53:00
10:53 AM,24.1,21.9,91,30.37,0.8,SSW,11.5,-,0.03,Snow,Light Snow,210,2013-04-13 18:53:00
11:00 AM,24.8,21.2,86,30.37,0.8,SW,11.5,-,0.01,Snow,Light Snow,220,2013-04-13 19:00:00
11:53 AM,24.1,21.9,91,30.38,0.8,SW,10.4,-,0.04,Snow,Light Snow,220,2013-04-13 19:53:00
12:25 PM,24.8,23.0,93,30.38,1.0,WSW,8.1,-,0.01,Snow,Light Snow,240,2013-04-13 20:25:00
12:53 PM,25.0,23.0,92,30.36,1.0,WSW,12.7,-,0.02,Snow,Light Snow,240,2013-04-13 20:53:00
1:53 PM,26.1,25.0,96,30.36,1.0,SW,9.2,-,0.02,Snow,Light Snow,230,2013-04-13 21:53:00
2:53 PM,28.0,26.1,92,30.35,1.0,WSW,11.5,-,0.02,Snow,Light Snow,240,2013-04-13 22:53:00
3:35 PM,28.4,26.6,93,30.35,1.0,WSW,15.0,-,0.01,Snow,Light Snow,250,2013-04-13 23:35:00
3:53 PM,28.9,27.0,92,30.36,1.0,WSW,13.8,-,0.01,Snow,Light Snow,250,2013-04-13 23:53:00
4:24 PM,28.4,26.6,93,30.37,2.0,WSW,13.8,-,0.00,Snow,Light Snow,250,2013-04-14 00:24:00
4:53 PM,28.9,27.0,92,30.37,2.0,WSW,12.7,-,0.00,Snow,Light Snow,250,2013-04-14 00:53:00
5:53 PM,28.9,27.0,92,30.37,3.0,West,12.7,-,0.01,Snow,Light Snow,260,2013-04-14 01:53:00
6:53 PM,30.0,27.0,88,30.38,5.0,West,13.8,-,0.00,,Overcast,260,2013-04-14 02:53:00
7:53 PM,28.9,25.0,85,30.39,10.0,West,9.2,-,0.00,,Overcast,280,2013-04-14 03:53:00
8:53 PM,28.0,26.1,92,30.41,10.0,West,5.8,-,0.00,,Overcast,280,2013-04-14 04:53:00
9:53 PM,28.0,26.1,92,30.42,5.0,WNW,8.1,-,N/A,,Overcast,290,2013-04-14 05:53:00
10:53 PM,26.1,25.0,96,30.43,10.0,West,6.9,-,N/A,,Overcast,270,2013-04-14 06:53:00
11:53 PM,26.1,24.1,92,30.44,10.0,Calm,Calm,-,N/A,,Overcast,0,2013-04-14 07:53:00